Sunlight Mountain, CO

11:12 PM MDT on June 24, 2017 (GMT -0600)
Sunlight Mountain

Weather History for K5SM - June, 2014

Change the Weather History Date:

Tuesday, June 10, 2014

  Actual Average (KRIL) Record (KRIL)
Temperature  
Mean Temperature 54 °F -  
Max Temperature 64 °F 80 °F 96 °F (2013)
Min Temperature 44 °F 44 °F 31 °F (1937)
Degree Days  
Heating Degree Days 11    
Growing Degree Days 4 (Base 50)    
Moisture  
Dew Point 28 °F    
Average Humidity 41    
Maximum Humidity 53    
Minimum Humidity 28    
Precipitation  
Precipitation 0.00 in - - ()
Sea Level Pressure  
Sea Level Pressure 30.37 in    
Wind  
Wind Speed 1 mph (WSW)    
Max Wind Speed 7 mph    
Max Gust Speed 18 mph    
Visibility 10 miles    
Events      
Averages and records for this station are not official NWS values.
T = Trace of Precipitation, MM = Missing Value Source: NWS Daily Summary

Daily Weather History Graph

Daily Weather History Graph

Search for Another Location

Airport or City:

Trip Planner

Search our weather history database for the weather conditions in past years. The results will help you decide how hot, cold, wet, or windy it might be!

Date:

Astronomy

Jun. 10, 2014 Rise Set
Actual Time 5:42 AM MDT 8:36 PM MDT
Civil Twilight 5:09 AM MDT 9:08 PM MDT
Nautical Twilight 4:29 AM MDT 9:49 PM MDT
Astronomical Twilight 3:42 AM MDT 10:36 PM MDT
Moon 6:05 PM MDT (6/10) 3:49 AM MDT (6/10)
Length of Visible Light 15h 58m
Length of Day
14h 53m
Waxing Gibbous, 92% of the Moon is Illuminated
Jun 10
Waxing Gibbous
Jun 12
Full
Jun 19
Last Quarter
Jun 27
New
Jul 5
First Quarter

Hourly Weather History & Observations

Time (MDT) Temp. Windchill Dew Point Humidity Pressure Visibility Wind Dir Wind Speed Gust Speed Precip Events Conditions
12:02 AM 44.6 °F - 28.4 °F 53% 30.40 in 10.0 mi Calm Calm - N/A   Clear
12:21 AM 44.6 °F - 28.4 °F 53% 30.40 in 10.0 mi Calm Calm - N/A   Clear
12:42 AM 44.6 °F - 26.6 °F 49% 30.39 in 10.0 mi Calm Calm - N/A   Clear
1:02 AM 44.6 °F - 23.0 °F 43% 30.39 in 10.0 mi Calm Calm - N/A   Clear
1:22 AM 44.6 °F - 23.0 °F 43% 30.39 in 10.0 mi Calm Calm - N/A   Clear
1:42 AM 44.6 °F 43.1 °F 24.8 °F 46% 30.38 in 10.0 mi SSW 3.5 mph - N/A   Clear
2:22 AM 44.6 °F 43.1 °F 24.8 °F 46% 30.38 in 10.0 mi SW 3.5 mph - N/A   Clear
2:42 AM 44.6 °F - 24.8 °F 46% 30.38 in 10.0 mi Calm Calm - N/A   Clear
3:02 AM 44.6 °F - 26.6 °F 49% 30.37 in 10.0 mi Calm Calm - N/A   Clear
3:22 AM 44.6 °F - 24.8 °F 46% 30.37 in 10.0 mi Calm Calm - N/A   Clear
3:42 AM 44.6 °F - 23.0 °F 43% 30.37 in 10.0 mi Calm Calm - N/A   Clear
4:02 AM 44.6 °F - 23.0 °F 43% 30.37 in 10.0 mi Calm Calm - N/A   Clear
4:22 AM 44.6 °F - 23.0 °F 43% 30.37 in 10.0 mi Calm Calm - N/A   Clear
4:41 AM 44.6 °F - 23.0 °F 43% 30.37 in 10.0 mi Calm Calm - N/A   Clear
5:02 AM 44.6 °F - 24.8 °F 46% 30.37 in 10.0 mi Calm Calm - N/A   Clear
5:22 AM 44.6 °F - 24.8 °F 46% 30.37 in 10.0 mi Calm Calm - N/A   Clear
5:42 AM 44.6 °F - 24.8 °F 46% 30.37 in 10.0 mi Calm Calm - N/A   Clear
6:21 AM 44.6 °F - 24.8 °F 46% 30.38 in 10.0 mi Calm Calm - N/A   Clear
6:42 AM 44.6 °F - 26.6 °F 49% 30.39 in 10.0 mi Calm Calm - N/A   Scattered Clouds
7:02 AM 46.4 °F - 26.6 °F 46% 30.39 in 10.0 mi Calm Calm - N/A   Mostly Cloudy
7:22 AM 46.4 °F - 26.6 °F 46% 30.39 in 10.0 mi Calm Calm - N/A   Scattered Clouds
8:02 AM 50.0 °F - 28.4 °F 43% 30.40 in 10.0 mi Calm Calm - N/A   Scattered Clouds
8:22 AM 50.0 °F - 28.4 °F 43% 30.39 in 10.0 mi Calm Calm - N/A   Scattered Clouds
8:42 AM 51.8 °F - 28.4 °F 41% 30.39 in 10.0 mi Calm Calm - N/A   Clear
9:22 AM 55.4 °F - 28.4 °F 36% 30.39 in 10.0 mi Calm Calm - N/A   Clear
9:42 AM 55.4 °F - 28.4 °F 36% 30.39 in 10.0 mi Calm Calm - N/A   Clear
10:02 AM 57.2 °F - 26.6 °F 31% 30.39 in 10.0 mi Calm Calm - N/A   Clear
10:22 AM 57.2 °F - 26.6 °F 31% 30.39 in 10.0 mi Calm Calm - N/A   Scattered Clouds
10:42 AM 60.8 °F - 30.2 °F 31% 30.39 in 10.0 mi Calm Calm - N/A   Scattered Clouds
11:22 AM 60.8 °F - 32.0 °F 34% 30.39 in 10.0 mi Calm Calm - N/A   Scattered Clouds
11:42 AM 59.0 °F - 32.0 °F 36% 30.40 in 10.0 mi West 5.8 mph - N/A   Mostly Cloudy
12:02 PM 55.4 °F - 33.8 °F 44% 30.40 in 10.0 mi Calm Calm - N/A   Overcast
12:22 PM 59.0 °F - 32.0 °F 36% 30.39 in 10.0 mi Calm Calm - N/A   Overcast
12:42 PM 60.8 °F - 32.0 °F 34% 30.39 in 10.0 mi Calm Calm - N/A   Overcast
1:22 PM 64.4 °F - 32.0 °F 30% 30.39 in 10.0 mi Calm Calm - N/A   Mostly Cloudy
1:42 PM 64.4 °F - 32.0 °F 30% 30.38 in 10.0 mi Calm Calm - N/A   Scattered Clouds
2:02 PM 64.4 °F - 32.0 °F 30% 30.37 in 10.0 mi Calm Calm - N/A   Scattered Clouds
2:22 PM 62.6 °F - 32.0 °F 32% 30.37 in 10.0 mi WSW 3.5 mph - N/A   Scattered Clouds
2:42 PM 64.4 °F - 30.2 °F 28% 30.36 in 10.0 mi SW 3.5 mph - N/A   Scattered Clouds
3:22 PM 59.0 °F - 30.2 °F 34% 30.35 in 10.0 mi Calm Calm - N/A   Mostly Cloudy
3:42 PM 57.2 °F - 30.2 °F 36% 30.36 in 10.0 mi SW 4.6 mph - N/A   Mostly Cloudy
4:01 PM 55.4 °F - 28.4 °F 36% 30.36 in 10.0 mi SSW 5.8 mph - N/A   Overcast
4:23 PM 53.6 °F - 28.4 °F 38% 30.33 in 10.0 mi SSW 5.8 mph - N/A   Overcast
4:43 PM 55.4 °F - 30.2 °F 38% 30.36 in 10.0 mi SW 3.5 mph - N/A   Overcast
5:03 PM 60.8 °F - 30.2 °F 31% 30.36 in 10.0 mi Calm Calm - N/A   Overcast
5:23 PM 57.2 °F - 30.2 °F 36% 30.36 in 10.0 mi Calm Calm - N/A   Overcast
5:43 PM 53.6 °F - 28.4 °F 38% 30.37 in 10.0 mi WSW 6.9 mph - N/A   Overcast
6:03 PM 53.6 °F - 28.4 °F 38% 30.37 in 10.0 mi Calm Calm - N/A   Overcast
6:22 PM 57.2 °F - 28.4 °F 33% 30.36 in 10.0 mi WSW 3.5 mph - N/A   Scattered Clouds
6:43 PM 59.0 °F - 30.2 °F 34% 30.35 in 10.0 mi Calm Calm - N/A   Clear
7:02 PM 57.2 °F - 32.0 °F 38% 30.34 in 10.0 mi Calm Calm - N/A   Clear
7:23 PM 53.6 °F - 32.0 °F 44% 30.35 in 10.0 mi Calm Calm - N/A   Clear
7:43 PM 51.8 °F - 32.0 °F 47% 30.34 in 10.0 mi Calm Calm - N/A   Clear
8:03 PM 51.8 °F - 32.0 °F 47% 30.34 in 10.0 mi Calm Calm - N/A   Scattered Clouds
8:23 PM 51.8 °F - 30.2 °F 44% 30.34 in 10.0 mi Calm Calm - N/A   Overcast
8:43 PM 51.8 °F - 30.2 °F 44% 30.34 in 10.0 mi SW 3.5 mph - N/A   Overcast
9:22 PM 50.0 °F - 28.4 °F 43% 30.35 in 10.0 mi Calm Calm - N/A   Overcast
9:42 PM 50.0 °F - 30.2 °F 47% 30.35 in 10.0 mi Calm Calm - N/A   Mostly Cloudy
10:02 PM 50.0 °F - 30.2 °F 47% 30.36 in 10.0 mi Calm Calm - N/A   Mostly Cloudy
10:22 PM 50.0 °F - 30.2 °F 47% 30.37 in 10.0 mi Calm Calm - N/A   Overcast
10:41 PM 51.8 °F - 28.4 °F 41% 30.38 in 10.0 mi WNW 5.8 mph - N/A   Overcast
11:02 PM 51.8 °F - 30.2 °F 44% 30.38 in 10.0 mi West 3.5 mph - N/A   Overcast
11:22 PM 51.8 °F - 30.2 °F 44% 30.38 in 10.0 mi West 3.5 mph 18.4 mph N/A   Overcast
11:42 PM 50.0 °F - 32.0 °F 50% 30.39 in 10.0 mi West 3.5 mph - N/A   Overcast